WXM80 ListenWXM80 Stop

You find our weather info also at:

UK Metoffice

WeatherCloud

Weather Underground

Northeastern Weather Network

AWEKAS

Citizen Weather Observer Program (CWOP)

HAMweather, WeatherForYou, PWS Weather


Weather Underground History page Text

Daily Summary for March 3, 2016 Units:  English    Metric   Both
« Previous Day
Next Day »
Daily Weekly Monthly Yearly Custom
  High: Low: Average:
Temperature: 36.2 °F 26.0 °F 31.5 °F
Dew Point: 23.1 °F 11.7 °F 15.2 °F
Humidity: 67 % 36 % 51 %
Wind Speed: 11.0 mph 0.0 mph 3.4 mph
Wind Gust: 18.4 mph - -
Wind:- - West
Pressure: 30.25 in 30.07 in -
Precipitation: 0.00 in    
Historical Graphs
 
 
Tabular Data for March 3, 2016
Time Temperature Dew Point Pressure Wind Wind Speed Wind Gust Humidity Rainfall Rate (Hourly)
00:01 29.0 °F 14.4 °F 30.07 in WNW 5.7 mph 11.5 mph 54 % 0.00 in
00:06 28.9 °F 15.2 °F 30.07 in NW 7.4 mph 12.7 mph 56 % 0.00 in
00:11 28.9 °F 14.7 °F 30.07 in WNW 4.4 mph 11.5 mph 55 % 0.00 in
00:16 28.8 °F 15.1 °F 30.08 in North 8.1 mph 18.0 mph 56 % 0.00 in
00:21 28.8 °F 14.6 °F 30.08 in West 8.3 mph 10.4 mph 55 % 0.00 in
00:26 28.7 °F 14.6 °F 30.09 in NNW 7.7 mph 11.5 mph 55 % 0.00 in
00:31 28.6 °F 14.5 °F 30.09 in NNW 8.0 mph 18.4 mph 55 % 0.00 in
00:36 28.6 °F 14.9 °F 30.10 in West 5.7 mph 10.0 mph 56 % 0.00 in
00:41 28.5 °F 14.8 °F 30.10 in NNW 5.4 mph 10.4 mph 56 % 0.00 in
00:47 28.5 °F 14.4 °F 30.10 in WNW 11.0 mph 17.0 mph 55 % 0.00 in
00:52 28.4 °F 14.7 °F 30.11 in NNW 9.0 mph 13.8 mph 56 % 0.00 in
01:02 28.3 °F 13.8 °F 30.12 in NNE 5.3 mph 10.4 mph 54 % 0.00 in
01:07 28.2 °F 14.5 °F 30.11 in NW 6.5 mph 11.5 mph 56 % 0.00 in
01:12 28.2 °F 14.1 °F 30.12 in WNW 8.2 mph 15.0 mph 55 % 0.00 in
01:17 28.1 °F 14.4 °F 30.11 in WNW 5.5 mph 16.0 mph 56 % 0.00 in
01:22 28.1 °F 14.8 °F 30.11 in WSW 9.2 mph 14.0 mph 57 % 0.00 in
01:32 28.0 °F 14.3 °F 30.12 in NNW 7.6 mph 10.4 mph 56 % 0.00 in
01:38 27.9 °F 14.2 °F 30.11 in NW 8.1 mph 10.0 mph 56 % 0.00 in
01:43 27.9 °F 14.2 °F 30.12 in North 8.6 mph 15.0 mph 56 % 0.00 in
01:48 27.8 °F 14.1 °F 30.11 in WNW 6.7 mph 10.4 mph 56 % 0.00 in
01:53 27.8 °F 13.3 °F 30.12 in WNW 7.7 mph 15.0 mph 54 % 0.00 in
01:58 27.7 °F 13.2 °F 30.12 in West 6.6 mph 11.5 mph 54 % 0.00 in
02:03 27.6 °F 13.1 °F 30.11 in WNW 4.6 mph 9.2 mph 54 % 0.00 in
02:08 27.6 °F 13.5 °F 30.11 in NW 6.9 mph 11.5 mph 55 % 0.00 in
02:13 27.6 °F 13.9 °F 30.11 in WNW 8.7 mph 13.8 mph 56 % 0.00 in
02:18 27.5 °F 13.8 °F 30.11 in NE 3.6 mph 11.5 mph 56 % 0.00 in
02:23 27.5 °F 14.2 °F 30.11 in WNW 8.2 mph 10.4 mph 57 % 0.00 in
02:29 27.5 °F 13.8 °F 30.12 in NNW 7.1 mph 11.5 mph 56 % 0.00 in
02:34 27.4 °F 13.7 °F 30.11 in NW 5.5 mph 11.5 mph 56 % 0.00 in
02:39 27.4 °F 13.7 °F 30.12 in West 4.7 mph 8.1 mph 56 % 0.00 in
02:44 27.3 °F 13.7 °F 30.11 in NNW 5.2 mph 13.8 mph 56 % 0.00 in
02:49 27.3 °F 14.1 °F 30.11 in NNW 7.7 mph 11.5 mph 57 % 0.00 in
02:54 27.2 °F 14.4 °F 30.12 in WNW 6.4 mph 10.4 mph 58 % 0.00 in
02:59 27.2 °F 14.0 °F 30.12 in West 3.6 mph 8.1 mph 57 % 0.00 in
03:04 27.2 °F 13.6 °F 30.12 in NW 7.4 mph 17.3 mph 56 % 0.00 in
03:09 27.1 °F 13.5 °F 30.12 in NW 5.2 mph 11.5 mph 56 % 0.00 in
03:14 27.1 °F 13.5 °F 30.12 in West 4.5 mph 8.1 mph 56 % 0.00 in
03:20 27.0 °F 13.4 °F 30.12 in NNW 7.3 mph 16.1 mph 56 % 0.00 in
03:25 27.0 °F 13.4 °F 30.12 in WNW 5.9 mph 9.2 mph 56 % 0.00 in
03:30 27.0 °F 13.4 °F 30.13 in NW 7.2 mph 13.0 mph 56 % 0.00 in
03:40 26.9 °F 13.3 °F 30.12 in WNW 5.5 mph 9.2 mph 56 % 0.00 in
03:45 26.9 °F 14.1 °F 30.12 in NW 5.3 mph 9.2 mph 58 % 0.00 in
03:50 26.8 °F 14.0 °F 30.13 in NW 6.7 mph 9.0 mph 58 % 0.00 in
03:55 26.8 °F 14.0 °F 30.13 in NNW 6.1 mph 10.4 mph 58 % 0.00 in
04:00 26.8 °F 14.4 °F 30.13 in WNW 5.3 mph 6.9 mph 59 % 0.00 in
04:05 26.7 °F 14.3 °F 30.14 in WNW 6.5 mph 6.5 mph 59 % 0.00 in
04:11 26.7 °F 13.9 °F 30.14 in WNW 7.1 mph 10.4 mph 58 % 0.00 in
04:16 26.7 °F 13.9 °F 30.14 in NW 5.4 mph 10.4 mph 58 % 0.00 in
04:21 26.7 °F 13.9 °F 30.14 in NNW 5.6 mph 11.5 mph 58 % 0.00 in
04:26 26.7 °F 13.9 °F 30.15 in West 10.9 mph 17.3 mph 58 % 0.00 in
04:31 26.6 °F 13.4 °F 30.15 in NNW 3.5 mph 6.0 mph 57 % 0.00 in
04:36 26.5 °F 13.7 °F 30.15 in NNW 5.9 mph 11.5 mph 58 % 0.00 in
04:41 26.5 °F 14.1 °F 30.16 in WNW 2.5 mph 15.0 mph 59 % 0.00 in
04:46 26.5 °F 14.1 °F 30.15 in WNW 5.1 mph 9.0 mph 59 % 0.00 in
04:51 26.4 °F 14.0 °F 30.15 in WNW 4.0 mph 10.4 mph 59 % 0.00 in
04:56 26.4 °F 14.0 °F 30.16 in NW 7.6 mph 11.5 mph 59 % 0.00 in
05:02 26.4 °F 14.0 °F 30.16 in WNW 7.1 mph 11.5 mph 59 % 0.00 in
05:07 26.4 °F 14.0 °F 30.16 in WNW 5.6 mph 13.8 mph 59 % 0.00 in
05:12 26.4 °F 13.6 °F 30.16 in NW 6.1 mph 11.5 mph 58 % 0.00 in
05:17 26.4 °F 13.6 °F 30.17 in WNW 2.8 mph 5.0 mph 58 % 0.00 in
05:22 26.4 °F 14.0 °F 30.17 in WNW 5.0 mph 8.1 mph 59 % 0.00 in
05:27 26.3 °F 13.9 °F 30.16 in WNW 6.2 mph 9.2 mph 59 % 0.00 in
05:32 26.3 °F 13.5 °F 30.16 in WNW 4.0 mph 9.2 mph 58 % 0.00 in
05:37 26.2 °F 13.8 °F 30.17 in NNW 4.6 mph 9.0 mph 59 % 0.00 in
05:42 26.1 °F 14.1 °F 30.16 in NNW 6.3 mph 9.2 mph 60 % 0.00 in
05:48 26.1 °F 13.7 °F 30.16 in WNW 4.0 mph 15.0 mph 59 % 0.00 in
05:53 26.1 °F 14.5 °F 30.16 in North 2.8 mph 6.9 mph 61 % 0.00 in
05:58 26.1 °F 14.8 °F 30.17 in NNW 5.6 mph 11.5 mph 62 % 0.00 in
06:03 26.1 °F 14.5 °F 30.17 in North 3.3 mph 6.9 mph 61 % 0.00 in
06:08 26.0 °F 14.4 °F 30.18 in NW 1.2 mph 5.8 mph 61 % 0.00 in
06:13 26.0 °F 14.4 °F 30.18 in NW 6.1 mph 11.5 mph 61 % 0.00 in
06:18 26.0 °F 14.0 °F 30.18 in NW 6.5 mph 11.5 mph 60 % 0.00 in
06:23 26.0 °F 14.4 °F 30.19 in WNW 7.0 mph 8.0 mph 61 % 0.00 in
06:28 26.0 °F 14.4 °F 30.19 in West 5.9 mph 9.2 mph 61 % 0.00 in
06:33 26.0 °F 14.4 °F 30.19 in WSW 3.1 mph 4.0 mph 61 % 0.00 in
06:39 26.0 °F 14.4 °F 30.19 in West 4.4 mph 7.0 mph 61 % 0.00 in
06:44 26.1 °F 14.8 °F 30.20 in West 2.0 mph 8.1 mph 62 % 0.00 in
06:49 26.2 °F 14.6 °F 30.20 in SW 4.3 mph 9.2 mph 61 % 0.00 in
06:54 26.3 °F 14.7 °F 30.20 in WNW 0.9 mph 3.5 mph 61 % 0.00 in
06:59 26.4 °F 14.8 °F 30.20 in WNW 4.8 mph 6.9 mph 61 % 0.00 in
07:04 26.5 °F 15.2 °F 30.20 in SW 2.5 mph 9.0 mph 62 % 0.00 in
07:14 26.9 °F 14.9 °F 30.21 in NW 4.2 mph 9.0 mph 60 % 0.00 in
07:19 27.0 °F 14.9 °F 30.22 in North 7.4 mph 11.5 mph 60 % 0.00 in
07:24 27.2 °F 14.8 °F 30.21 in WNW 3.4 mph 11.5 mph 59 % 0.00 in
07:30 27.4 °F 14.9 °F 30.22 in NNW 1.5 mph 9.2 mph 59 % 0.00 in
07:35 27.6 °F 14.7 °F 30.21 in NNW 4.0 mph 10.4 mph 58 % 0.00 in
07:40 27.6 °F 14.7 °F 30.21 in NW 2.7 mph 10.4 mph 58 % 0.00 in
07:45 27.7 °F 14.4 °F 30.22 in WNW 3.8 mph 9.2 mph 57 % 0.00 in
07:50 27.8 °F 14.5 °F 30.23 in NNW 4.8 mph 8.1 mph 57 % 0.00 in
07:55 27.9 °F 15.0 °F 30.23 in NNW 3.1 mph 6.0 mph 58 % 0.00 in
08:00 28.0 °F 14.3 °F 30.23 in NNW 3.5 mph 8.1 mph 56 % 0.00 in
08:05 28.3 °F 15.0 °F 30.23 in WSW 4.0 mph 6.0 mph 57 % 0.00 in
08:10 28.5 °F 14.8 °F 30.24 in NNW 6.7 mph 13.8 mph 56 % 0.00 in
08:15 28.6 °F 14.5 °F 30.24 in North 6.3 mph 10.4 mph 55 % 0.00 in
08:21 28.7 °F 15.0 °F 30.24 in NW 7.3 mph 11.5 mph 56 % 0.00 in
08:26 28.7 °F 14.6 °F 30.24 in NW 4.5 mph 6.9 mph 55 % 0.00 in
08:31 28.8 °F 14.6 °F 30.24 in NW 3.2 mph 10.4 mph 55 % 0.00 in
08:41 29.4 °F 14.8 °F 30.24 in NW 3.6 mph 6.9 mph 54 % 0.00 in
08:46 29.6 °F 15.0 °F 30.24 in WNW 4.7 mph 6.9 mph 54 % 0.00 in
08:51 29.7 °F 14.6 °F 30.24 in NNW 4.5 mph 5.8 mph 53 % 0.00 in
08:56 29.7 °F 14.6 °F 30.24 in NW 2.5 mph 5.8 mph 53 % 0.00 in
09:01 29.8 °F 15.2 °F 30.24 in WNW 3.1 mph 4.6 mph 54 % 0.00 in
09:06 29.9 °F 14.8 °F 30.24 in NW 3.2 mph 6.9 mph 53 % 0.00 in
09:12 30.2 °F 15.1 °F 30.24 in NW 1.8 mph 4.6 mph 53 % 0.00 in
09:17 30.7 °F 15.1 °F 30.24 in NW 4.4 mph 6.9 mph 52 % 0.00 in
09:25 31.3 °F 15.2 °F 30.23 in NNW 3.5 mph 7.0 mph 51 % 0.00 in
09:30 31.6 °F 15.5 °F 30.23 in WNW 4.3 mph 5.8 mph 51 % 0.00 in
09:35 31.8 °F 15.7 °F 30.24 in WNW 3.1 mph 4.0 mph 51 % 0.00 in
09:40 32.0 °F 15.4 °F 30.24 in NNW 4.6 mph 5.8 mph 50 % 0.00 in
09:46 32.1 °F 15.1 °F 30.24 in WNW 3.5 mph 7.0 mph 49 % 0.00 in
09:51 32.1 °F 15.5 °F 30.24 in NW 3.8 mph 5.8 mph 50 % 0.00 in
09:56 32.2 °F 15.6 °F 30.24 in NW 3.3 mph 4.6 mph 50 % 0.00 in
10:01 32.3 °F 15.7 °F 30.24 in NNE 3.4 mph 4.6 mph 50 % 0.00 in
10:06 32.5 °F 16.8 °F 30.24 in North 2.7 mph 6.0 mph 52 % 0.00 in
10:11 32.9 °F 16.3 °F 30.24 in WNW 3.2 mph 5.8 mph 50 % 0.00 in
10:16 33.2 °F 16.5 °F 30.24 in NNE 3.4 mph 4.0 mph 50 % 0.00 in
10:21 33.3 °F 15.7 °F 30.24 in WNW 4.3 mph 5.8 mph 48 % 0.00 in
10:26 33.4 °F 15.8 °F 30.25 in NNW 2.1 mph 3.5 mph 48 % 0.00 in
10:31 33.8 °F 16.2 °F 30.25 in NNW 3.0 mph 4.0 mph 48 % 0.00 in
10:37 34.0 °F 16.8 °F 30.25 in NNW 2.6 mph 5.8 mph 49 % 0.00 in
10:42 34.0 °F 15.4 °F 30.25 in WNW 0.4 mph 3.5 mph 46 % 0.00 in
10:47 33.9 °F 15.3 °F 30.25 in WNW 1.0 mph 2.3 mph 46 % 0.00 in
10:52 33.9 °F 15.8 °F 30.25 in NW 1.3 mph 3.5 mph 47 % 0.00 in
10:57 33.9 °F 16.7 °F 30.25 in NW 0.9 mph 2.3 mph 49 % 0.00 in
11:02 33.9 °F 15.8 °F 30.25 in WSW 3.3 mph 6.0 mph 47 % 0.00 in
11:07 33.8 °F 15.7 °F 30.25 in WSW 0.2 mph 2.3 mph 47 % 0.00 in
11:12 33.9 °F 15.3 °F 30.25 in West 3.9 mph 6.0 mph 46 % 0.00 in
11:17 34.4 °F 16.7 °F 30.25 in East 0.3 mph 2.3 mph 48 % 0.00 in
11:22 35.2 °F 17.9 °F 30.25 in WNW 2.1 mph 3.5 mph 49 % 0.00 in
11:33 34.9 °F 14.6 °F 30.25 in WSW 4.6 mph 5.8 mph 43 % 0.00 in
11:38 35.2 °F 15.4 °F 30.24 in West 3.3 mph 5.8 mph 44 % 0.00 in
11:43 35.4 °F 16.6 °F 30.24 in NE 3.3 mph 4.6 mph 46 % 0.00 in
11:48 35.4 °F 16.1 °F 30.25 in SSW 1.8 mph 4.6 mph 45 % 0.00 in
11:53 35.6 °F 15.3 °F 30.25 in SW 5.0 mph 8.1 mph 43 % 0.00 in
11:58 35.8 °F 16.0 °F 30.25 in SSE 2.3 mph 4.6 mph 44 % 0.00 in
12:03 35.8 °F 15.5 °F 30.24 in SW 6.4 mph 10.4 mph 43 % 0.00 in
12:08 35.5 °F 14.6 °F 30.24 in WNW 0.7 mph 3.5 mph 42 % 0.00 in
12:14 35.5 °F 14.6 °F 30.24 in WSW 4.1 mph 4.6 mph 42 % 0.00 in
12:19 35.8 °F 14.9 °F 30.23 in WSW 2.8 mph 6.9 mph 42 % 0.00 in
12:24 35.9 °F 17.6 °F 30.23 in SSW 1.3 mph 3.5 mph 47 % 0.00 in
12:29 36.2 °F 15.3 °F 30.23 in WNW 2.2 mph 10.0 mph 42 % 0.00 in
12:34 36.2 °F 15.3 °F 30.22 in WNW 4.3 mph 8.1 mph 42 % 0.00 in
12:39 36.1 °F 15.2 °F 30.22 in SSW 4.7 mph 6.9 mph 42 % 0.00 in
12:44 36.0 °F 15.1 °F 30.22 in SW 4.1 mph 8.0 mph 42 % 0.00 in
12:49 35.9 °F 14.5 °F 30.22 in SW 4.2 mph 4.2 mph 41 % 0.00 in
12:54 35.6 °F 14.2 °F 30.22 in West 1.4 mph 9.2 mph 41 % 0.00 in
12:59 35.3 °F 13.3 °F 30.22 in WSW 0.9 mph 2.3 mph 40 % 0.00 in
13:05 35.2 °F 13.8 °F 30.22 in WSW 5.1 mph 7.0 mph 41 % 0.00 in
13:10 35.3 °F 12.8 °F 30.22 in WNW 3.0 mph 5.8 mph 39 % 0.00 in
13:15 35.5 °F 14.1 °F 30.21 in West 5.1 mph 8.1 mph 41 % 0.00 in
13:20 35.6 °F 13.6 °F 30.21 in WSW 1.3 mph 3.5 mph 40 % 0.00 in
13:25 35.7 °F 12.5 °F 30.21 in WSW 3.3 mph 4.6 mph 38 % 0.00 in
13:35 35.9 °F 13.3 °F 30.21 in WSW 4.8 mph 6.0 mph 39 % 0.00 in
13:40 35.9 °F 14.5 °F 30.21 in WSW 2.8 mph 7.0 mph 41 % 0.00 in
13:45 35.8 °F 12.6 °F 30.20 in West 1.7 mph 4.6 mph 38 % 0.00 in
13:50 35.8 °F 14.4 °F 30.20 in West 3.1 mph 5.8 mph 41 % 0.00 in
13:56 35.9 °F 12.7 °F 30.20 in West 1.6 mph 3.0 mph 38 % 0.00 in
14:01 36.1 °F 13.5 °F 30.20 in WSW 1.2 mph 4.0 mph 39 % 0.00 in
14:06 36.2 °F 13.0 °F 30.21 in NW 2.3 mph 4.6 mph 38 % 0.00 in
14:11 36.1 °F 11.7 °F 30.21 in West 0.8 mph 3.5 mph 36 % 0.00 in
14:16 36.1 °F 12.9 °F 30.21 in SW 1.8 mph 4.6 mph 38 % 0.00 in
14:21 36.0 °F 14.0 °F 30.21 in WSW 2.2 mph 5.0 mph 40 % 0.00 in
14:23 36.0 °F 13.4 °F 30.21 in WNW 4.9 mph 8.1 mph 39 % 0.00 in
14:28 35.9 °F 12.7 °F 30.21 in SSW 5.2 mph 8.1 mph 38 % 0.00 in
14:33 35.7 °F 11.9 °F 30.20 in SSW 2.8 mph 4.6 mph 37 % 0.00 in
14:38 35.8 °F 13.2 °F 30.20 in West 3.9 mph 5.8 mph 39 % 0.00 in
14:43 36.0 °F 13.4 °F 30.20 in SW 7.2 mph 9.2 mph 39 % 0.00 in
14:48 36.1 °F 13.5 °F 30.21 in WSW 6.7 mph 10.4 mph 39 % 0.00 in
14:53 36.1 °F 13.5 °F 30.20 in WSW 5.1 mph 7.0 mph 39 % 0.00 in
14:58 36.1 °F 12.9 °F 30.20 in SW 7.4 mph 9.2 mph 38 % 0.00 in
15:03 35.9 °F 12.7 °F 30.20 in SW 3.8 mph 9.2 mph 38 % 0.00 in
15:08 35.9 °F 12.7 °F 30.20 in WSW 2.5 mph 5.8 mph 38 % 0.00 in
15:14 36.0 °F 12.8 °F 30.20 in WSW 3.1 mph 10.4 mph 38 % 0.00 in
15:19 35.9 °F 12.7 °F 30.19 in SSW 3.1 mph 6.9 mph 38 % 0.00 in
15:24 35.9 °F 12.7 °F 30.19 in SW 6.4 mph 8.1 mph 38 % 0.00 in
15:29 35.9 °F 12.7 °F 30.19 in SSW 3.2 mph 5.0 mph 38 % 0.00 in
15:34 35.9 °F 13.3 °F 30.19 in WSW 5.0 mph 7.0 mph 39 % 0.00 in
15:39 35.8 °F 12.6 °F 30.19 in SSW 3.2 mph 7.0 mph 38 % 0.00 in
15:44 35.7 °F 12.5 °F 30.19 in West 4.9 mph 8.1 mph 38 % 0.00 in
15:49 35.7 °F 12.5 °F 30.19 in SW 5.5 mph 7.0 mph 38 % 0.00 in
15:54 35.6 °F 12.5 °F 30.19 in WSW 3.3 mph 5.0 mph 38 % 0.00 in
15:59 35.4 °F 12.3 °F 30.19 in West 3.2 mph 4.6 mph 38 % 0.00 in
16:05 35.3 °F 12.2 °F 30.19 in WSW 2.5 mph 4.0 mph 38 % 0.00 in
16:15 35.2 °F 12.7 °F 30.19 in WSW 4.2 mph 8.0 mph 39 % 0.00 in
16:20 35.1 °F 12.6 °F 30.19 in WSW 4.8 mph 8.1 mph 39 % 0.00 in
16:25 35.0 °F 13.1 °F 30.19 in SW 3.2 mph 5.8 mph 40 % 0.00 in
16:30 34.9 °F 12.4 °F 30.19 in SW 2.5 mph 3.5 mph 39 % 0.00 in
16:35 34.9 °F 12.4 °F 30.19 in SW 3.6 mph 6.9 mph 39 % 0.00 in
16:40 34.8 °F 12.9 °F 30.18 in WSW 0.6 mph 3.5 mph 40 % 0.00 in
16:45 34.8 °F 12.9 °F 30.19 in West 0.8 mph 2.3 mph 40 % 0.00 in
16:50 34.8 °F 12.3 °F 30.19 in West 1.3 mph 3.5 mph 39 % 0.00 in
16:56 34.7 °F 12.8 °F 30.19 in West 0.2 mph 2.0 mph 40 % 0.00 in
17:01 34.7 °F 12.8 °F 30.19 in WSW 3.8 mph 6.0 mph 40 % 0.00 in
17:06 34.6 °F 13.3 °F 30.19 in WSW 2.1 mph 4.6 mph 41 % 0.00 in
17:11 34.5 °F 12.6 °F 30.19 in West 1.6 mph 3.5 mph 40 % 0.00 in
17:16 34.5 °F 13.2 °F 30.19 in WSW 0.3 mph 2.0 mph 41 % 0.00 in
17:21 34.4 °F 13.1 °F 30.20 in WSW 2.8 mph 4.6 mph 41 % 0.00 in
17:26 34.3 °F 13.0 °F 30.20 in SW 3.5 mph 4.0 mph 41 % 0.00 in
17:31 34.2 °F 12.9 °F 30.20 in SSW 2.2 mph 4.6 mph 41 % 0.00 in
17:36 34.1 °F 12.8 °F 30.20 in WSW 4.4 mph 6.9 mph 41 % 0.00 in
17:41 34.0 °F 13.3 °F 30.20 in Calm     42 % 0.00 in
17:47 33.9 °F 13.2 °F 30.20 in WSW 0.1 mph 2.3 mph 42 % 0.00 in
17:52 33.9 °F 13.2 °F 30.21 in SW 0.1 mph 3.5 mph 42 % 0.00 in
17:57 33.8 °F 13.1 °F 30.20 in SW 0.7 mph 3.5 mph 42 % 0.00 in
18:02 33.7 °F 13.0 °F 30.20 in Calm   1.2 mph 42 % 0.00 in
18:07 33.6 °F 12.9 °F 30.20 in SW 0.1 mph 1.2 mph 42 % 0.00 in
18:12 33.5 °F 13.4 °F 30.20 in Calm     43 % 0.00 in
18:17 33.4 °F 13.3 °F 30.20 in Calm     43 % 0.00 in
18:22 33.3 °F 13.2 °F 30.20 in Calm     43 % 0.00 in
18:27 33.2 °F 13.1 °F 30.21 in Calm     43 % 0.00 in
18:32 33.1 °F 14.0 °F 30.21 in Calm     45 % 0.00 in
18:38 33.0 °F 14.4 °F 30.21 in Calm   1.2 mph 46 % 0.00 in
18:43 32.8 °F 14.3 °F 30.22 in Calm     46 % 0.00 in
18:48 32.8 °F 14.8 °F 30.22 in Calm     47 % 0.00 in
18:53 32.7 °F 14.7 °F 30.22 in Calm   1.2 mph 47 % 0.00 in
18:58 32.6 °F 14.6 °F 30.22 in Calm   1.2 mph 47 % 0.00 in
19:03 32.6 °F 14.6 °F 30.22 in SW 0.1 mph 1.0 mph 47 % 0.00 in
19:08 32.5 °F 14.5 °F 30.23 in Calm     47 % 0.00 in
19:13 32.5 °F 14.5 °F 30.22 in Calm     47 % 0.00 in
19:18 32.5 °F 15.0 °F 30.22 in Calm     48 % 0.00 in
19:23 32.5 °F 14.5 °F 30.22 in Calm     47 % 0.00 in
19:29 32.5 °F 14.5 °F 30.21 in Calm   1.2 mph 47 % 0.00 in
19:39 32.5 °F 15.0 °F 30.22 in Calm     48 % 0.00 in
19:44 32.6 °F 15.5 °F 30.22 in Calm     49 % 0.00 in
19:49 32.6 °F 16.0 °F 30.21 in Calm     50 % 0.00 in
19:59 32.7 °F 16.1 °F 30.21 in Calm     50 % 0.00 in
20:04 32.7 °F 16.1 °F 30.20 in Calm     50 % 0.00 in
20:09 32.8 °F 16.6 °F 30.21 in Calm     51 % 0.00 in
20:14 32.7 °F 17.0 °F 30.22 in SW 0.3 mph 1.0 mph 52 % 0.00 in
20:20 32.7 °F 17.9 °F 30.22 in SSW 0.7 mph 3.5 mph 54 % 0.00 in
20:25 32.8 °F 16.6 °F 30.22 in SSW 1.3 mph 3.5 mph 51 % 0.00 in
20:30 32.8 °F 16.2 °F 30.22 in SSW 3.2 mph 3.5 mph 50 % 0.00 in
20:40 32.9 °F 17.2 °F 30.23 in South 2.6 mph 4.0 mph 52 % 0.00 in
20:45 33.0 °F 17.7 °F 30.22 in SW 2.5 mph 4.0 mph 53 % 0.00 in
20:50 33.1 °F 18.2 °F 30.22 in SSW 2.2 mph 4.6 mph 54 % 0.00 in
20:55 33.1 °F 18.2 °F 30.22 in SSW 1.9 mph 3.5 mph 54 % 0.00 in
21:00 33.2 °F 18.8 °F 30.22 in SSW 1.8 mph 3.5 mph 55 % 0.00 in
21:05 33.2 °F 18.8 °F 30.22 in SSW 1.6 mph 3.5 mph 55 % 0.00 in
21:11 33.2 °F 19.2 °F 30.22 in South 2.8 mph 4.6 mph 56 % 0.00 in
21:16 33.3 °F 19.7 °F 30.22 in SSW 2.5 mph 4.0 mph 57 % 0.00 in
21:21 33.3 °F 19.3 °F 30.22 in SSW 0.7 mph 2.3 mph 56 % 0.00 in
21:26 33.3 °F 19.3 °F 30.23 in SSW 0.6 mph 2.3 mph 56 % 0.00 in
21:31 33.3 °F 19.7 °F 30.23 in SSW 2.9 mph 4.0 mph 57 % 0.00 in
21:36 33.3 °F 19.7 °F 30.22 in SSW 0.1 mph 2.0 mph 57 % 0.00 in
21:41 33.3 °F 20.1 °F 30.22 in SSW 0.9 mph 3.5 mph 58 % 0.00 in
21:46 33.3 °F 20.1 °F 30.23 in SSW 0.7 mph 2.3 mph 58 % 0.00 in
21:51 33.3 °F 20.1 °F 30.22 in SSW 2.3 mph 3.5 mph 58 % 0.00 in
21:56 33.3 °F 20.5 °F 30.22 in SSW 1.5 mph 3.5 mph 59 % 0.00 in
22:02 33.3 °F 20.5 °F 30.22 in SSW 1.6 mph 3.5 mph 59 % 0.00 in
22:07 33.3 °F 20.9 °F 30.22 in SSW 2.7 mph 3.5 mph 60 % 0.00 in
22:12 33.3 °F 20.9 °F 30.23 in SSW 0.7 mph 2.3 mph 60 % 0.00 in
22:17 33.3 °F 20.9 °F 30.23 in SSW 0.2 mph 2.3 mph 60 % 0.00 in
22:22 33.3 °F 20.9 °F 30.22 in SSW 2.0 mph 3.5 mph 60 % 0.00 in
22:27 33.3 °F 21.3 °F 30.22 in SSW 0.1 mph 1.2 mph 61 % 0.00 in
22:32 33.3 °F 21.3 °F 30.22 in SSW 0.6 mph 2.3 mph 61 % 0.00 in
22:37 33.3 °F 21.3 °F 30.21 in SSW 1.7 mph 3.0 mph 61 % 0.00 in
22:42 33.3 °F 21.7 °F 30.21 in South 0.7 mph 2.3 mph 62 % 0.00 in
22:53 33.3 °F 21.7 °F 30.21 in South 0.7 mph 2.3 mph 62 % 0.00 in
22:58 33.3 °F 21.7 °F 30.21 in South 0.2 mph 1.2 mph 62 % 0.00 in
23:03 33.3 °F 21.7 °F 30.21 in Calm     62 % 0.00 in
23:08 33.3 °F 21.7 °F 30.21 in Calm     62 % 0.00 in
23:13 33.2 °F 21.6 °F 30.21 in Calm     62 % 0.00 in
23:18 33.2 °F 22.0 °F 30.20 in Calm     63 % 0.00 in
23:23 33.2 °F 22.0 °F 30.21 in Calm     63 % 0.00 in
23:28 33.1 °F 21.9 °F 30.21 in Calm     63 % 0.00 in
23:33 33.0 °F 22.1 °F 30.20 in Calm     64 % 0.00 in
23:38 33.0 °F 22.5 °F 30.20 in Calm     65 % 0.00 in
23:44 32.9 °F 22.8 °F 30.19 in Calm   1.2 mph 66 % 0.00 in
23:49 32.9 °F 23.1 °F 30.20 in Calm     67 % 0.00 in
23:54 32.8 °F 23.0 °F 30.20 in Calm     67 % 0.00 in
23:59 32.8 °F 23.0 °F 30.20 in South 0.1 mph 1.2 mph 67 % 0.00 in
Crab Meadow Weather
Compliments of Weather Underground - 2.75 mb

Script developed by  Jim McMurry - jmcmurry@mwt.net Adapted for the template by  Wim van der Kuil - Leuven-Template.eu

Weather Terms: Blizzard Warning - Sustained winds or frequent gusts of 35 mph or greater, considerable falling and/or blowing snow reducing visibility frequently to 1/4 mile or less for a period of three hours or more. There are no temperature criteria in the definition of a blizzard but freezing temperatures and 35 mph winds will create sub-zero wind chills.